Language: 


Des rapports , des résumés tant et plus, au choix de chacun....


Données statistiques de la station
Quotidien Rapport Mai 4, 2017 Unités:  Anglais    Métrique   les deux
« Précédent Jour
Suivant Jour »
Quotidien Hebdomadaire Mensuel Annuel Actuel
  Haut: Bas: Moyen:
Température: 63.7 °F 48.6 °F 55 °F
Pt de rosée: 57.2 °F 48.2 °F 51.8 °F
Humidité: 98 % 66 % 88 %
Vitesse du vent: 12.5 mph 0.9 mph 6.4 mph
Rafales: 14.8 mph - -
Vent:- - ESE
Pression: 30.1 in 30 in -
Précipitation: 0 in    
Historical Graphs
 
 
Données statistiques pour Mai 4, 2017
Heure Température Point de rosée Pression Vent Vitesse du vent Refales Humidité Pluie (taux horaire)
00:02 48.7 °F 48.2 °F 30.1 in NE 4.5 mph 5.4 mph 94 % 0 in
00:07 48.6 °F 48.2 °F 30.1 in NNE 4.9 mph 5.6 mph 94 % 0 in
00:12 48.7 °F 48.2 °F 30.1 in North 3.8 mph 6.5 mph 95 % 0 in
00:13 48.7 °F 48.2 °F 30.1 in NNE 3.1 mph 6.5 mph 95 % 0 in
00:18 48.7 °F 48.2 °F 30.1 in NE 4.3 mph 6.5 mph 95 % 0 in
00:23 48.9 °F 48.2 °F 30.1 in NE 3.8 mph 5.4 mph 95 % 0 in
00:28 48.9 °F 48.2 °F 30.1 in NNE 3.6 mph 5.4 mph 96 % 0 in
00:33 48.9 °F 48.2 °F 30.1 in North 3.1 mph 4.7 mph 96 % 0 in
00:38 49.1 °F 48.2 °F 30.1 in North 2.9 mph 4.7 mph 96 % 0 in
00:43 49.3 °F 48.2 °F 30.1 in NNE 3.6 mph 5.8 mph 96 % 0 in
00:48 49.6 °F 48.2 °F 30.1 in North 4.3 mph 6 mph 96 % 0 in
00:53 50 °F 50 °F 30.1 in North 3.8 mph 6 mph 96 % 0 in
00:58 50 °F 50 °F 30.1 in NNE 3.8 mph 6 mph 96 % 0 in
01:04 50.2 °F 50 °F 30.1 in North 2.9 mph 5.8 mph 96 % 0 in
01:09 50.4 °F 50 °F 30.1 in North 5.6 mph 5.6 mph 96 % 0 in
01:14 50.4 °F 50 °F 30.1 in NE 3.4 mph 5.6 mph 96 % 0 in
01:19 50.5 °F 50 °F 30.1 in North 4.7 mph 6.3 mph 96 % 0 in
01:24 50.5 °F 50 °F 30.1 in North 3.4 mph 6.3 mph 96 % 0 in
01:29 50.5 °F 50 °F 30.1 in North 3.8 mph 6 mph 96 % 0 in
01:34 50.5 °F 50 °F 30.1 in NE 3.4 mph 5.8 mph 96 % 0 in
01:39 50.5 °F 50 °F 30.1 in North 2.5 mph 5.8 mph 96 % 0 in
01:44 50.5 °F 50 °F 30.1 in NNE 2.7 mph 5.4 mph 96 % 0 in
01:49 50.5 °F 50 °F 30.1 in North 3.8 mph 6.3 mph 96 % 0 in
01:54 50.5 °F 50 °F 30 in NE 3.4 mph 6.5 mph 96 % 0 in
01:59 50.5 °F 50 °F 30 in NE 3.8 mph 6.5 mph 97 % 0 in
02:04 50.5 °F 50 °F 30 in North 5.4 mph 5.6 mph 97 % 0 in
02:09 50.7 °F 50 °F 30 in NNE 6.3 mph 6.3 mph 97 % 0 in
02:10 50.5 °F 50 °F 30 in NNE 5.8 mph 6.3 mph 97 % 0 in
02:15 50.7 °F 50 °F 30 in NE 5.4 mph 6.3 mph 97 % 0 in
02:20 50.7 °F 50 °F 30 in NE 5.6 mph 6.5 mph 97 % 0 in
02:25 50.7 °F 50 °F 30 in NE 5.6 mph 6.5 mph 97 % 0 in
02:30 50.9 °F 50 °F 30 in NNE 4.3 mph 6.5 mph 97 % 0 in
02:35 50.9 °F 50 °F 30 in NE 3.8 mph 6.5 mph 97 % 0 in
02:40 51.1 °F 51.8 °F 30 in NE 6.5 mph 9.8 mph 98 % 0 in
02:45 51.1 °F 51.8 °F 30 in NE 4.9 mph 9.8 mph 98 % 0 in
02:50 51.3 °F 51.8 °F 30 in ENE 8.5 mph 8.5 mph 98 % 0 in
02:55 51.3 °F 51.8 °F 30 in NNE 4.9 mph 8.5 mph 98 % 0 in
03:00 51.4 °F 51.8 °F 30 in NE 6.5 mph 8.5 mph 98 % 0 in
03:05 51.4 °F 51.8 °F 30 in ENE 6.5 mph 8.1 mph 98 % 0 in
03:10 51.4 °F 51.8 °F 30 in NE 5.8 mph 6.7 mph 98 % 0 in
03:15 51.4 °F 51.8 °F 30 in East 4 mph 6.3 mph 98 % 0 in
03:20 51.3 °F 51.8 °F 30 in NE 3.6 mph 6.5 mph 98 % 0.01 in
03:25 51.3 °F 51.8 °F 30 in ENE 5.8 mph 7.4 mph 98 % 0.01 in
03:30 51.3 °F 51.8 °F 30 in ENE 4.9 mph 7.4 mph 98 % 0.01 in
03:35 51.3 °F 51.8 °F 30 in NE 4.7 mph 6 mph 98 % 0.01 in
03:40 51.3 °F 51.8 °F 30 in ENE 4.9 mph 5.8 mph 98 % 0.01 in
03:45 51.3 °F 51.8 °F 30 in NE 4.7 mph 6 mph 98 % 0.01 in
03:50 51.1 °F 51.8 °F 30 in NE 3.1 mph 6 mph 98 % 0.02 in
03:55 51.1 °F 51.8 °F 30 in NE 3.8 mph 5.4 mph 98 % 0.02 in
04:00 51.1 °F 51.8 °F 30 in NE 4.7 mph 6 mph 98 % 0.02 in
04:05 51.1 °F 51.8 °F 30 in NE 3.8 mph 6 mph 98 % 0.02 in
04:10 50.9 °F 51.8 °F 30 in NNE 3.6 mph 4.5 mph 98 % 0.02 in
04:13 50.9 °F 51.8 °F 30 in ENE 2 mph 4.9 mph 98 % 0.02 in
04:18 50.9 °F 51.8 °F 30 in NNE 3.4 mph 4.9 mph 98 % 0.02 in
04:23 50.7 °F 50 °F 30 in North 4 mph 4.9 mph 98 % 0.01 in
04:28 50.7 °F 50 °F 30 in NNE 7.4 mph 7.4 mph 98 % 0.01 in
04:33 50.5 °F 50 °F 30 in North 2.9 mph 7.4 mph 98 % 0.02 in
04:38 50.5 °F 50 °F 30 in NNE 3.8 mph 6.3 mph 98 % 0.02 in
04:43 50.5 °F 50 °F 30 in NNE 4 mph 6.3 mph 98 % 0.02 in
04:48 50.5 °F 50 °F 30 in NNE 3.4 mph 6.3 mph 98 % 0.01 in
04:53 50.5 °F 50 °F 30 in NE 3.1 mph 4.9 mph 98 % 0.01 in
04:58 50.5 °F 50 °F 30 in NE 5.8 mph 6 mph 98 % 0.01 in
05:03 50.4 °F 50 °F 30 in East 3.6 mph 6.5 mph 98 % 0.01 in
05:08 50.4 °F 50 °F 30 in NNE 4 mph 6.5 mph 98 % 0.01 in
05:13 50.4 °F 50 °F 30 in NE 5.4 mph 5.8 mph 98 % 0.01 in
05:18 50.4 °F 50 °F 30 in NE 4.9 mph 6.5 mph 98 % 0.01 in
05:23 50.4 °F 50 °F 30 in NNE 5.8 mph 6.5 mph 98 % 0.01 in
05:28 50.4 °F 50 °F 30 in ENE 6.5 mph 7.4 mph 98 % 0 in
05:34 50.4 °F 50 °F 30 in NE 5.4 mph 7.4 mph 98 % 0 in
05:39 50.4 °F 50 °F 30 in North 3.1 mph 7.4 mph 98 % 0 in
05:44 50.4 °F 50 °F 30 in NNE 4.9 mph 6.5 mph 98 % 0 in
05:49 50.4 °F 50 °F 30 in NNW 3.8 mph 6.5 mph 98 % 0 in
05:54 50.5 °F 50 °F 30.1 in NE 6.5 mph 8.1 mph 98 % 0 in
05:59 50.5 °F 50 °F 30.1 in NE 5.6 mph 8.1 mph 98 % 0 in
06:04 50.5 °F 50 °F 30.1 in NNE 3.6 mph 7.4 mph 98 % 0 in
06:09 50.5 °F 50 °F 30 in NE 5.6 mph 8.1 mph 98 % 0 in
06:14 50.5 °F 50 °F 30 in North 6.5 mph 8.5 mph 98 % 0 in
06:19 50.4 °F 50 °F 30 in North 4.9 mph 8.5 mph 98 % 0 in
06:24 50.4 °F 50 °F 30 in NE 6.3 mph 8.7 mph 98 % 0 in
06:29 50.4 °F 50 °F 30 in North 7.6 mph 8.7 mph 98 % 0 in
06:34 50.5 °F 50 °F 30 in NE 5.4 mph 8.1 mph 98 % 0 in
06:39 50.5 °F 50 °F 30 in NNE 7.2 mph 8.1 mph 98 % 0 in
06:44 50.5 °F 50 °F 30 in NNE 6 mph 8.5 mph 98 % 0 in
06:49 50.5 °F 50 °F 30 in NE 8.1 mph 8.7 mph 98 % 0 in
06:54 50.5 °F 50 °F 30 in NE 6.5 mph 8.7 mph 98 % 0 in
06:59 50.5 °F 50 °F 30 in NE 6.7 mph 8.9 mph 98 % 0 in
07:04 50.5 °F 50 °F 30 in NNE 8.5 mph 8.9 mph 98 % 0 in
07:10 50.7 °F 50 °F 30 in NNE 6.3 mph 8.7 mph 98 % 0 in
07:15 50.7 °F 50 °F 30 in NE 7.6 mph 8.1 mph 98 % 0 in
07:20 50.7 °F 50 °F 30 in NNE 5.8 mph 8.5 mph 98 % 0 in
07:25 50.7 °F 50 °F 30 in NE 7.6 mph 8.5 mph 98 % 0 in
07:30 50.7 °F 50 °F 30 in NE 5.8 mph 8.5 mph 98 % 0 in
07:31 50.7 °F 50 °F 30 in NNE 6 mph 8.5 mph 98 % 0 in
07:36 50.9 °F 51.8 °F 30 in NE 6.3 mph 7.2 mph 98 % 0 in
07:41 50.9 °F 51.8 °F 30 in NE 5.4 mph 8.5 mph 98 % 0 in
07:46 51.1 °F 51.8 °F 30 in NE 5.8 mph 8.5 mph 98 % 0 in
07:51 51.1 °F 51.8 °F 30 in North 6.3 mph 7.4 mph 98 % 0 in
07:56 51.1 °F 51.8 °F 30 in NNE 3.6 mph 8.5 mph 98 % 0 in
08:01 51.1 °F 51.8 °F 30 in NE 6.5 mph 8.5 mph 98 % 0 in
08:06 51.1 °F 51.8 °F 30 in NNE 5.8 mph 8.1 mph 98 % 0 in
08:11 51.3 °F 51.8 °F 30 in North 7.2 mph 7.4 mph 98 % 0.01 in
08:16 51.3 °F 51.8 °F 30 in North 5.6 mph 8.1 mph 98 % 0.01 in
08:21 51.6 °F 51.8 °F 30 in NE 5.8 mph 8.1 mph 98 % 0.01 in
08:26 51.6 °F 51.8 °F 30 in NNE 4.9 mph 7.6 mph 98 % 0.01 in
08:31 51.6 °F 51.8 °F 30 in NE 3.8 mph 7.6 mph 98 % 0.01 in
08:36 51.6 °F 51.8 °F 30 in NNE 6.5 mph 7.6 mph 98 % 0.01 in
08:41 51.6 °F 51.8 °F 30 in NE 5.8 mph 7.6 mph 98 % 0.01 in
08:46 51.6 °F 51.8 °F 30 in NNE 4 mph 7.4 mph 98 % 0.01 in
08:51 51.8 °F 51.8 °F 30 in NE 5.8 mph 7.2 mph 98 % 0.01 in
08:56 52.2 °F 51.8 °F 30 in NNE 3.8 mph 7.2 mph 98 % 0.01 in
09:02 52.5 °F 51.8 °F 30 in North 5.8 mph 7.8 mph 98 % 0.01 in
09:06 52.7 °F 53.6 °F 30 in North 2 mph 7.8 mph 98 % 0.01 in
09:12 53.1 °F 53.6 °F 30 in North 3.8 mph 8.1 mph 98 % 0 in
09:16 53.4 °F 53.6 °F 30 in NNE 2.9 mph 8.1 mph 98 % 0 in
09:22 53.6 °F 53.6 °F 30 in North 7.4 mph 8.7 mph 98 % 0 in
09:26 53.6 °F 53.6 °F 30 in NNE 6.5 mph 8.7 mph 98 % 0 in
09:32 53.6 °F 53.6 °F 30 in ENE 6.3 mph 9.4 mph 98 % 0 in
09:37 53.4 °F 53.6 °F 30 in NE 5.6 mph 12.1 mph 98 % 0 in
09:42 53.6 °F 53.6 °F 30 in NNE 7.6 mph 12.1 mph 97 % 0 in
09:47 53.6 °F 53.6 °F 30 in NE 5.4 mph 8.9 mph 97 % 0 in
09:52 53.6 °F 53.6 °F 30 in NNE 6 mph 8.5 mph 97 % 0 in
09:57 53.6 °F 53.6 °F 30 in NNE 4.9 mph 8.1 mph 97 % 0 in
10:02 53.6 °F 53.6 °F 30 in ENE 7.6 mph 8.1 mph 97 % 0 in
10:07 53.6 °F 53.6 °F 30 in East 7.2 mph 8.1 mph 97 % 0 in
10:12 53.4 °F 53.6 °F 30 in NE 9.4 mph 10.3 mph 97 % 0 in
10:17 53.4 °F 53.6 °F 30 in NE 6.5 mph 10.3 mph 97 % 0 in
10:22 53.6 °F 53.6 °F 30 in NNE 7.2 mph 9.4 mph 97 % 0 in
10:24 53.6 °F 53.6 °F 30 in NE 8.1 mph 8.7 mph 97 % 0 in
10:29 53.6 °F 53.6 °F 30 in NNE 7.4 mph 10.3 mph 97 % 0 in
10:34 53.8 °F 53.6 °F 30 in NE 8.7 mph 13.2 mph 97 % 0 in
10:39 53.8 °F 53.6 °F 30 in NE 10.3 mph 13.2 mph 97 % 0 in
10:44 53.8 °F 53.6 °F 30 in NNE 5.6 mph 11 mph 96 % 0 in
10:49 53.8 °F 53.6 °F 30 in NE 7.8 mph 10.3 mph 96 % 0 in
10:54 54 °F 53.6 °F 30 in NE 7.6 mph 10.3 mph 97 % 0 in
10:59 55 °F 55.4 °F 30 in NE 10.1 mph 10.1 mph 97 % 0.01 in
11:04 55.2 °F 55.4 °F 30 in NNE 5.8 mph 11.2 mph 97 % 0.01 in
11:09 55.2 °F 55.4 °F 30 in NNE 7.6 mph 11.2 mph 97 % 0.01 in
11:14 55.2 °F 55.4 °F 30 in NE 6.5 mph 10.3 mph 97 % 0.01 in
11:19 55.4 °F 55.4 °F 30 in NE 5.6 mph 9.6 mph 96 % 0.01 in
11:24 55 °F 55.4 °F 30 in NNE 8.7 mph 10.7 mph 96 % 0.01 in
11:29 54.9 °F 55.4 °F 30 in NNW 8.1 mph 11 mph 96 % 0.01 in
11:34 55 °F 55.4 °F 30 in NE 7.4 mph 11 mph 96 % 0.01 in
11:39 56.1 °F 55.4 °F 30 in NE 7.4 mph 10.3 mph 96 % 0.01 in
11:44 57 °F 57.2 °F 30 in NE 7.6 mph 10.5 mph 96 % 0.01 in
11:50 56.7 °F 55.4 °F 30 in NE 11 mph 11 mph 95 % 0.01 in
11:55 56.5 °F 55.4 °F 30 in NE 5.8 mph 11 mph 94 % 0.01 in
12:00 56.3 °F 55.4 °F 30 in NNE 7.4 mph 9.8 mph 94 % 0 in
12:05 56.3 °F 55.4 °F 30 in NE 7.8 mph 11 mph 94 % 0 in
12:10 56.5 °F 55.4 °F 30 in North 10.3 mph 11 mph 94 % 0 in
12:15 57 °F 55.4 °F 30 in NE 3.8 mph 10.3 mph 94 % 0 in
12:20 57.4 °F 55.4 °F 30 in NE 10.1 mph 10.1 mph 93 % 0 in
12:25 57.4 °F 55.4 °F 30 in NNE 7.8 mph 12.5 mph 91 % 0 in
12:30 57.7 °F 55.4 °F 30 in NNE 9.8 mph 13 mph 90 % 0 in
12:35 57.9 °F 55.4 °F 30 in NE 7.6 mph 13 mph 90 % 0 in
12:40 57.6 °F 55.4 °F 30 in NNE 8.7 mph 12.5 mph 88 % 0 in
12:45 57.4 °F 53.6 °F 30 in NE 8.5 mph 13.2 mph 87 % 0 in
12:50 57.6 °F 53.6 °F 30 in NE 8.1 mph 13.2 mph 86 % 0 in
12:55 57.9 °F 55.4 °F 30 in NNE 6.5 mph 10.5 mph 87 % 0 in
13:00 57.9 °F 55.4 °F 30 in East 7.4 mph 10.5 mph 87 % 0 in
13:05 57.9 °F 55.4 °F 30 in NE 10.1 mph 10.1 mph 87 % 0 in
13:10 57.9 °F 53.6 °F 30 in NE 9.8 mph 13 mph 86 % 0 in
13:15 57.7 °F 53.6 °F 30 in NE 10.7 mph 13 mph 85 % 0 in
13:20 57.4 °F 53.6 °F 30 in NNE 5.8 mph 10.7 mph 86 % 0 in
13:22 57.6 °F 53.6 °F 30 in NNE 8.1 mph 10.7 mph 86 % 0 in
13:27 57.9 °F 53.6 °F 30 in NE 8.7 mph 9.6 mph 86 % 0 in
13:33 58.5 °F 55.4 °F 30 in NE 6.5 mph 9.4 mph 86 % 0 in
13:38 58.8 °F 55.4 °F 30 in NE 7.4 mph 8.7 mph 86 % 0 in
13:43 58.6 °F 55.4 °F 30 in NE 8.7 mph 10.1 mph 85 % 0 in
13:48 58.8 °F 55.4 °F 30 in ESE 5.6 mph 10.1 mph 84 % 0 in
13:53 59.4 °F 55.4 °F 30 in ENE 7.6 mph 10.3 mph 84 % 0 in
13:58 60.1 °F 55.4 °F 30 in ENE 7.8 mph 10.3 mph 83 % 0 in
14:03 61 °F 55.4 °F 30 in East 6.3 mph 10.1 mph 82 % 0 in
14:08 61.5 °F 55.4 °F 30 in ENE 10.7 mph 10.7 mph 81 % 0 in
14:13 61.2 °F 53.6 °F 30 in NE 9.8 mph 12.3 mph 76 % 0 in
14:18 61.9 °F 55.4 °F 30 in NE 9.8 mph 12.5 mph 76 % 0 in
14:23 62.1 °F 53.6 °F 30 in NNE 7.4 mph 12.5 mph 74 % 0 in
14:28 61.7 °F 55.4 °F 30 in NE 8.7 mph 12.5 mph 75 % 0 in
14:33 61.7 °F 55.4 °F 30 in North 9.6 mph 10.1 mph 76 % 0 in
14:38 60.8 °F 53.6 °F 30 in NE 7.4 mph 10.1 mph 74 % 0 in
14:43 60.6 °F 53.6 °F 30 in ENE 8.1 mph 10.7 mph 75 % 0 in
14:48 60.4 °F 53.6 °F 30 in NE 8.5 mph 12.3 mph 76 % 0 in
14:53 61.3 °F 55.4 °F 30 in NE 7.4 mph 12.3 mph 77 % 0 in
14:58 61 °F 53.6 °F 30 in NE 10.5 mph 11.2 mph 75 % 0 in
15:03 61.7 °F 55.4 °F 30 in ENE 8.7 mph 10.5 mph 75 % 0 in
15:08 61.9 °F 53.6 °F 30 in North 10.5 mph 12.1 mph 74 % 0 in
15:13 61 °F 53.6 °F 30 in NE 5.6 mph 12.1 mph 74 % 0 in
15:18 61.7 °F 55.4 °F 30 in NE 8.5 mph 10.3 mph 75 % 0 in
15:23 60.8 °F 51.8 °F 30 in NE 7.6 mph 11 mph 73 % 0 in
15:25 61.2 °F 53.6 °F 30 in East 3.8 mph 11 mph 74 % 0 in
15:30 62.2 °F 53.6 °F 30 in NE 10.1 mph 11 mph 74 % 0 in
15:35 61.5 °F 53.6 °F 30 in NE 8.5 mph 12.5 mph 73 % 0 in
15:40 61.5 °F 53.6 °F 30 in NE 12.5 mph 12.5 mph 72 % 0 in
15:43 60.8 °F 51.8 °F 30 in NE 12.3 mph 12.5 mph 72 % 0 in
15:48 60.3 °F 51.8 °F 30 in NE 10.3 mph 14.8 mph 74 % 0 in
15:53 60.3 °F 51.8 °F 30 in NNE 5.6 mph 14.8 mph 74 % 0 in
15:58 59.7 °F 51.8 °F 30 in NE 8.1 mph 11 mph 74 % 0 in
16:03 59.4 °F 51.8 °F 30 in NE 8.1 mph 13 mph 74 % 0 in
16:08 59.2 °F 51.8 °F 30 in North 10.3 mph 13 mph 76 % 0 in
16:13 59.4 °F 53.6 °F 30 in NNE 7.2 mph 13.6 mph 77 % 0 in
16:18 59.4 °F 51.8 °F 30 in NNE 10.1 mph 13.6 mph 76 % 0 in
16:23 59.5 °F 51.8 °F 30 in North 8.5 mph 13 mph 75 % 0 in
16:28 59.9 °F 53.6 °F 30 in NNE 8.5 mph 13 mph 75 % 0 in
16:33 59.9 °F 53.6 °F 30 in North 10.1 mph 12.3 mph 75 % 0 in
16:38 59.9 °F 51.8 °F 30 in NNE 8.5 mph 10.1 mph 74 % 0 in
16:43 59.7 °F 51.8 °F 30 in NE 8.7 mph 10.7 mph 73 % 0 in
16:48 59.9 °F 51.8 °F 30 in ENE 6 mph 10.7 mph 73 % 0 in
16:54 60.1 °F 51.8 °F 30 in NE 6 mph 10.3 mph 73 % 0 in
16:59 60.3 °F 51.8 °F 30 in North 9.8 mph 9.8 mph 74 % 0 in
17:04 60.4 °F 51.8 °F 30 in NNE 7.8 mph 10.1 mph 73 % 0 in
17:09 60.6 °F 53.6 °F 30 in NE 8.1 mph 10.1 mph 74 % 0 in
17:14 60.8 °F 51.8 °F 30 in NNE 8.5 mph 11 mph 73 % 0 in
17:19 62.1 °F 53.6 °F 30 in NNE 7.4 mph 11 mph 72 % 0 in
17:24 61.7 °F 51.8 °F 30 in NE 7.8 mph 10.1 mph 70 % 0 in
17:29 62.2 °F 51.8 °F 30 in NE 8.5 mph 10.3 mph 70 % 0 in
17:34 62.1 °F 51.8 °F 30 in NE 7.2 mph 10.7 mph 68 % 0 in
17:39 62.6 °F 51.8 °F 30 in NE 6.3 mph 10.7 mph 67 % 0 in
17:44 63.1 °F 51.8 °F 30 in NE 6 mph 9.6 mph 67 % 0 in
17:49 63.7 °F 53.6 °F 30 in NE 7.4 mph 9.6 mph 68 % 0 in
17:54 61.9 °F 50 °F 30 in NE 6.5 mph 10.1 mph 66 % 0 in
17:56 61.7 °F 51.8 °F 30 in NE 7.6 mph 10.1 mph 67 % 0 in
18:01 60.8 °F 50 °F 30 in NE 3.4 mph 8.9 mph 67 % 0 in
18:06 60.6 °F 50 °F 30 in North 7.8 mph 12.3 mph 68 % 0 in
18:11 59.9 °F 50 °F 30 in NE 7.8 mph 12.3 mph 68 % 0 in
18:16 59.5 °F 50 °F 30 in NNE 5.6 mph 9.8 mph 70 % 0 in
18:21 60.6 °F 51.8 °F 30 in NE 4.9 mph 8.5 mph 71 % 0 in
18:26 61.3 °F 51.8 °F 30 in NNE 8.1 mph 10.5 mph 69 % 0 in
18:32 60.8 °F 50 °F 30 in NNE 6.5 mph 11 mph 69 % 0 in
18:37 61 °F 51.8 °F 30 in North 8.1 mph 11 mph 70 % 0 in
18:42 61.3 °F 51.8 °F 30 in NNW 6.5 mph 10.1 mph 70 % 0 in
18:47 61.5 °F 51.8 °F 30 in North 8.5 mph 10.1 mph 70 % 0 in
18:52 61.7 °F 51.8 °F 30 in North 8.1 mph 9.8 mph 69 % 0 in
18:57 61.5 °F 51.8 °F 30 in North 7.4 mph 10.7 mph 69 % 0 in
19:02 61.7 °F 51.8 °F 30 in WNW 1.6 mph 10.7 mph 70 % 0 in
19:07 61.5 °F 51.8 °F 30 in NNW 5.4 mph 9.2 mph 69 % 0 in
19:13 61.3 °F 51.8 °F 30 in North 6.5 mph 9.2 mph 69 % 0 in
19:18 61.2 °F 51.8 °F 30 in North 7.8 mph 8.7 mph 70 % 0 in
19:23 60.8 °F 51.8 °F 30 in North 5.4 mph 10.5 mph 70 % 0 in
19:28 60.8 °F 51.8 °F 30 in ENE 6.5 mph 10.5 mph 71 % 0 in
19:33 60.6 °F 51.8 °F 30 in NNE 8.5 mph 10.3 mph 72 % 0 in
19:38 60.1 °F 51.8 °F 30 in North 6 mph 10.3 mph 72 % 0 in
19:43 59.7 °F 51.8 °F 30 in North 5.6 mph 10.1 mph 73 % 0 in
19:48 59.5 °F 51.8 °F 30 in North 6.5 mph 10.5 mph 73 % 0 in
19:53 59.4 °F 51.8 °F 30 in NNE 5.6 mph 10.5 mph 74 % 0 in
19:58 59.4 °F 51.8 °F 30 in North 8.1 mph 9.4 mph 74 % 0 in
20:03 59.2 °F 51.8 °F 30 in North 8.7 mph 10.1 mph 74 % 0 in
20:08 58.8 °F 51.8 °F 30 in NNE 0.9 mph 10.1 mph 75 % 0 in
20:13 58.5 °F 51.8 °F 30 in North 8.1 mph 8.7 mph 76 % 0 in
20:18 57.9 °F 51.8 °F 30 in NNE 7.6 mph 10.3 mph 77 % 0 in
20:23 57.7 °F 51.8 °F 30 in North 2.9 mph 10.3 mph 78 % 0 in
20:29 57.4 °F 50 °F 30 in NNE 4.9 mph 7.6 mph 78 % 0 in
20:34 57.2 °F 51.8 °F 30 in NNE 3.4 mph 7.6 mph 79 % 0 in
20:39 56.8 °F 51.8 °F 30 in North 3.1 mph 7.6 mph 80 % 0 in
20:44 56.7 °F 51.8 °F 30 in North 3.4 mph 7.6 mph 81 % 0 in
20:49 56.3 °F 51.8 °F 30 in North 5.6 mph 6.5 mph 81 % 0 in
20:54 56.1 °F 51.8 °F 30 in NE 3.8 mph 6.5 mph 82 % 0 in
20:59 55.9 °F 51.8 °F 30 in North 6 mph 7.6 mph 82 % 0 in
21:04 55.8 °F 51.8 °F 30 in North 2.5 mph 7.6 mph 82 % 0 in
21:09 55.6 °F 50 °F 30.1 in NW 6.3 mph 6.3 mph 82 % 0 in
21:14 55.4 °F 50 °F 30.1 in North 3.1 mph 7.6 mph 83 % 0 in
21:19 55.2 °F 51.8 °F 30.1 in NE 6 mph 7.6 mph 84 % 0 in
21:24 55.2 °F 50 °F 30.1 in NE 7.6 mph 10.3 mph 83 % 0 in
21:29 55.2 °F 50 °F 30.1 in NE 9.2 mph 10.3 mph 83 % 0 in
21:34 55 °F 50 °F 30.1 in NE 6.3 mph 10.1 mph 82 % 0 in
21:39 54.9 °F 50 °F 30.1 in NNE 7.4 mph 9.6 mph 82 % 0 in
21:44 54.7 °F 50 °F 30.1 in NNE 8.5 mph 9.6 mph 83 % 0 in
21:49 54.5 °F 50 °F 30.1 in NE 3.8 mph 8.7 mph 83 % 0 in
21:55 54.5 °F 50 °F 30.1 in NE 10.7 mph 11.2 mph 83 % 0 in
22:00 54.5 °F 50 °F 30.1 in NE 7.2 mph 14.5 mph 83 % 0 in
22:05 54.7 °F 50 °F 30.1 in NNE 8.1 mph 14.5 mph 83 % 0 in
22:10 54.7 °F 50 °F 30.1 in NE 5.6 mph 14.1 mph 83 % 0 in
22:15 54.7 °F 50 °F 30.1 in NE 6 mph 10.5 mph 83 % 0 in
22:20 54.7 °F 50 °F 30.1 in NE 7.4 mph 10.7 mph 83 % 0 in
22:25 54.5 °F 50 °F 30.1 in NE 8.7 mph 10.7 mph 83 % 0 in
22:30 54.5 °F 50 °F 30.1 in NE 7.6 mph 9.6 mph 84 % 0 in
22:34 54.5 °F 50 °F 30.1 in NE 8.1 mph 10.5 mph 84 % 0 in
22:39 54.5 °F 50 °F 30.1 in ENE 7.6 mph 10.5 mph 84 % 0 in
22:44 54.3 °F 50 °F 30.1 in NNE 7.8 mph 8.7 mph 84 % 0 in
22:49 54.1 °F 50 °F 30.1 in ENE 8.5 mph 8.7 mph 84 % 0 in
22:54 54 °F 50 °F 30.1 in NE 9.8 mph 10.5 mph 84 % 0 in
22:59 54 °F 50 °F 30.1 in NE 8.1 mph 10.5 mph 84 % 0 in
23:04 53.8 °F 50 °F 30.1 in NE 6.3 mph 9.8 mph 85 % 0 in
23:09 53.8 °F 50 °F 30.1 in NE 7.4 mph 8.1 mph 85 % 0 in
23:14 53.6 °F 50 °F 30.1 in NE 7.4 mph 8.7 mph 85 % 0 in
23:19 53.4 °F 50 °F 30.1 in ENE 6.3 mph 8.7 mph 85 % 0 in
23:24 53.2 °F 48.2 °F 30.1 in NE 6 mph 8.5 mph 86 % 0 in
23:29 53.1 °F 48.2 °F 30.1 in NNE 6.3 mph 8.1 mph 86 % 0 in
23:34 53.1 °F 48.2 °F 30.1 in NE 7.6 mph 7.8 mph 86 % 0 in
23:39 52.9 °F 50 °F 30.1 in NNE 6.5 mph 8.5 mph 87 % 0 in
23:44 52.9 °F 50 °F 30.1 in North 6 mph 8.7 mph 88 % 0 in
23:49 52.9 °F 50 °F 30.1 in NNE 8.7 mph 8.7 mph 88 % 0 in
23:54 53.1 °F 50 °F 30.1 in North 6.5 mph 8.7 mph 87 % 0 in
23:59 53.1 °F 50 °F 30.1 in NE 6.3 mph 8.7 mph 88 % 0 in
Le Gheer Warneton
Courtoisie de Weather Underground - 2.5 mb

Mise a jour : 18/12/2017 23:13:12
Généré par Cumulus 1.9.4 (1099)